FW9613 Weather Reports


time (UTC)temp
F
wind
direction
speed
knots
gust
knots
rain 1hr
in
rain 24hr
in
rain mn
in
humidity
%
barometer
mb
20260906164601 95 50 4.3 8.7 0.00 0.00 0.00 45 1016.4
20260906163105 95 23 2.6 8.7 0.00 0.00 0.00 46 1016.4
20260906161559 97 11 0.9 5.2 0.00 0.00 0.00 45 1016.5
20260906154606 94 5 2.6 5.2 0.00 0.00 0.00 49 1016.6
20260906153101 93 35 0.9 5.2 0.00 0.00 0.00 52 1016.5
20260906151604 91 109 3.5 6.1 0.00 0.00 0.00 54 1016.4
20260906150107 89 132 3.5 7.0 0.00 0.00 0.00 58 1016.4
20260906144609 89 103 3.5 7.0 0.00 0.00 0.00 57 1016.4
20260906143102 85 143 1.7 7.0 0.00 0.00 0.00 63 1016.4
20260906141625 84 98 2.6 6.1 0.00 0.00 0.00 65 1016.4
20260906140111 84 54 2.6 7.0 0.00 0.00 0.00 65 1016.4
20260906134629 83 66 3.5 7.0 0.00 0.00 0.00 67 1016.3
20260906133113 82 80 2.6 7.0 0.00 0.00 0.00 68 1016.2
20260906131604 81 59 2.6 6.1 0.00 0.00 0.00 69 1016.0
20260906130147 79 105 0.0 0.0 0.00 0.00 0.00 72 1015.9
20260906124611 78 45 1.7 3.5 0.00 0.00 0.00 73 1015.8
20260906123105 78 63 1.7 3.5 0.00 0.00 0.00 73 1015.5
20260906121609 76 0 0.0 1.7 0.00 0.00 0.00 75 1015.4
20260906120110 76 83 0.9 1.7 0.00 0.00 0.00 75 1015.5
20260906114612 76 83 0.9 3.5 0.00 0.00 0.00 75 1015.3
20260906113107 76 0 0.0 0.0 0.00 0.00 0.00 75 1015.2
20260906111602 76 0 0.0 1.7 0.00 0.00 0.00 74 1015.0
20260906110104 77 60 0.9 2.6 0.00 0.00 0.00 72 1015.1
20260906104602 78 0 0.0 0.0 0.00 0.00 0.00 70 1015.2
20260906103104 80 0 0.0 2.6 0.00 0.00 0.00 66 1015.1
20260906101604 78 0 0.0 0.0 0.00 0.00 0.00 70 1015.0
20260906094601 78 0 0.0 0.0 0.00 0.00 0.00 69 1014.7
20260906093105 79 0 0.0 0.0 0.00 0.00 0.00 69 1014.6
20260906091603 80 0 0.0 1.7 0.00 0.00 0.00 68 1014.5
20260906084606 81 0 0.0 0.0 0.00 0.00 0.00 64 1014.2
20260906083103 81 0 0.0 0.0 0.00 0.00 0.00 63 1014.3
20260906081601 81 0 0.0 0.0 0.00 0.00 0.00 64 1014.2
20260906080106 81 0 0.0 0.0 0.00 0.00 0.00 64 1014.2
20260906074602 82 0 0.0 1.7 0.00 0.00 0.00 63 1014.3
20260906073101 81 0 0.0 0.0 0.00 0.00 0.00 65 1014.4
20260906071603 81 0 0.0 0.9 0.00 0.00 0.00 65 1014.5
20260906064602 82 79 0.0 1.7 0.00 0.00 0.00 64 1014.6
20260906063101 83 0 0.0 0.0 0.00 0.00 0.00 63 1014.9
20260906061626 82 0 0.0 0.0 0.00 0.00 0.00 62 1015.0
20260906060119 82 0 0.0 0.9 0.00 0.00 0.00 63 1015.0
20260906054604 83 81 0.9 2.6 0.00 0.00 0.00 63 1015.0
20260906053102 82 0 0.0 0.0 0.00 0.00 0.00 62 1014.9
20260906051609 83 0 0.0 0.0 0.00 0.00 0.00 61 1014.8
20260906044554 84 0 0.0 0.0 0.00 0.00 0.00 60 1014.9
20260906043105 85 0 0.0 0.0 0.00 0.00 0.00 58 1015.0
20260906041602 85 0 0.0 1.7 0.00 0.00 0.00 57 1015.0
20260906040101 83 0 0.0 0.0 0.00 0.00 0.00 60 1015.0
20260906034607 83 0 0.0 0.0 0.00 0.00 0.00 60 1014.9
20260906033107 83 0 0.0 0.0 0.00 0.00 0.00 60 1014.8
20260906031600 84 0 0.0 0.0 0.00 0.00 0.00 59 1014.6
20260906030111 85 94 0.0 2.6 0.00 0.00 0.00 58 1014.6
20260906024604 85 0 0.0 0.0 0.00 0.00 0.00 58 1014.3
20260906023109 85 0 0.0 0.0 0.00 0.00 0.00 57 1014.3
20260906021608 85 0 0.0 0.0 0.00 0.00 0.00 57 1014.1
20260906020103 86 0 0.0 0.0 0.00 0.00 0.00 56 1014.0
20260906014608 86 0 0.0 0.0 0.00 0.00 0.00 56 1013.7
20260906013103 86 0 0.0 0.0 0.00 0.00 0.00 55 1013.5
20260906011607 86 0 0.0 2.6 0.00 0.00 0.00 55 1013.4
20260906010108 86 234 2.6 6.1 0.00 0.00 0.00 56 1013.4
20260906004601 86 188 5.2 8.7 0.00 0.00 0.00 55 1013.4
20260906003104 87 200 5.2 10.4 0.00 0.00 0.00 56 1013.5
20260906001606 88 227 4.3 8.7 0.00 0.00 0.00 55 1013.6
20260906000109 89 225 5.2 13.0 0.00 0.00 0.00 52 1013.6
20260905234606 93 137 5.2 12.2 0.00 0.00 0.00 46 1013.4
20260905233120 97 360 2.6 6.1 0.00 0.00 0.00 40 1013.0
20260905231604 97 9 1.7 7.0 0.00 0.00 0.00 39 1012.8
20260905230106 98 49 2.6 7.8 0.00 0.00 0.00 38 1012.7
20260905224607 98 29 0.9 3.5 0.00 0.00 0.00 38 1012.7
20260905223104 98 36 0.9 4.3 0.00 0.00 0.00 36 1012.7
20260905221604 99 57 2.6 7.0 0.00 0.00 0.00 35 1012.7
20260905220109 101 26 4.3 9.6 0.00 0.00 0.00 34 1012.8
20260905214604 105 60 5.2 11.3 0.00 0.00 0.00 30 1012.8
20260905213113 101 219 0.0 6.1 0.00 0.00 0.00 34 1012.8
20260905211610 103 51 1.7 9.6 0.00 0.00 0.00 33 1013.1
20260905210114 102 326 2.6 7.8 0.00 0.00 0.00 34 1013.1
20260905204603 100 360 2.6 7.8 0.00 0.00 0.00 36 1013.4
20260905203106 99 294 0.0 0.9 0.00 0.00 0.00 36 1013.7
20260905201601 102 108 1.7 5.2 0.00 0.00 0.00 35 1013.9
20260905200104 102 12 3.5 6.1 0.00 0.00 0.00 35 1014.0
20260905194606 102 0 0.0 7.8 0.00 0.00 0.00 33 1014.1
20260905193103 101 23 2.6 7.8 0.00 0.00 0.00 35 1014.3
20260905191606 102 5 2.6 7.8 0.00 0.00 0.00 36 1014.4
20260905190107 102 245 3.5 9.6 0.00 0.00 0.00 34 1014.6
20260905184611 101 30 3.5 8.7 0.00 0.00 0.00 35 1014.9
20260905183119 99 272 1.7 7.8 0.00 0.00 0.00 36 1015.2
20260905181606 100 72 0.9 8.7 0.00 0.00 0.00 38 1015.4
20260905180106 99 273 2.6 9.6 0.00 0.00 0.00 40 1015.6
20260905174603 98 294 0.9 8.7 0.00 0.00 0.00 40 1015.8
20260905173103 99 339 5.2 9.6 0.00 0.00 0.00 40 1016.0
20260905171601 98 115 1.7 7.8 0.00 0.00 0.00 41 1016.2
20260905170104 99 277 1.7 8.7 0.00 0.00 0.00 41 1016.3